Time,TemperatureF,DewpointF,PressureIn,WindDirection,WindDirectionDegrees,WindSpeedMPH,WindSpeedGustMPH,Humidity,HourlyPrecipIn,Conditions,Clouds,dailyrainin,SolarRadiationWatts/m^2,SoftwareType,DateUTC
2013-07-15 00:02:00,70.2,66.8,30.03,WNW,292,0.0,0.0,89,0.03,RA,,0.00,0.0,WeatherDisplay:10.37,2013-07-15 05:02:00,
2013-07-15 00:07:00,70.2,66.8,30.03,WNW,292,0.0,0.0,89,0.03,RA,,0.00,0.0,WeatherDisplay:10.37,2013-07-15 05:07:00,
2013-07-15 00:12:00,70.2,66.8,30.02,WNW,292,0.0,0.0,89,0.03,CLR,,0.00,0.0,WeatherDisplay:10.37,2013-07-15 05:12:00,
2013-07-15 00:17:00,70.0,66.6,30.02,West,270,0.0,0.0,89,0.03,CLR,,0.00,0.0,WeatherDisplay:10.37,2013-07-15 05:17:00,
2013-07-15 00:22:00,70.0,66.6,30.02,WNW,292,0.0,0.0,89,0.00,CLR,,0.00,0.0,WeatherDisplay:10.37,2013-07-15 05:22:00,
2013-07-15 00:27:00,70.0,66.6,30.02,NNW,338,0.0,0.0,89,0.00,CLR,,0.00,0.0,WeatherDisplay:10.37,2013-07-15 05:27:00,
2013-07-15 00:33:00,70.0,66.6,30.02,NNE,22,0.0,0.0,89,0.00,CLR,,0.00,0.0,WeatherDisplay:10.37,2013-07-15 05:33:00,
2013-07-15 00:38:00,70.2,66.8,30.02,NE,45,0.0,0.0,89,0.00,CLR,,0.00,0.0,WeatherDisplay:10.37,2013-07-15 05:38:00,
2013-07-15 00:43:00,70.0,66.6,30.02,WSW,248,0.0,0.0,89,0.00,CLR,,0.00,0.0,WeatherDisplay:10.37,2013-07-15 05:43:00,
2013-07-15 00:48:00,70.2,66.8,30.02,West,270,0.0,0.0,89,0.00,CLR,,0.00,0.0,WeatherDisplay:10.37,2013-07-15 05:48:00,
2013-07-15 00:53:00,70.0,66.6,30.01,West,270,0.0,0.0,89,0.00,CLR,,0.00,0.0,WeatherDisplay:10.37,2013-07-15 05:53:00,
2013-07-15 00:58:00,70.0,66.6,30.01,West,270,0.0,0.0,89,0.00,CLR,,0.00,0.0,WeatherDisplay:10.37,2013-07-15 05:58:00,
2013-07-15 01:03:00,70.0,66.6,30.01,NW,315,0.0,0.0,89,0.03,RA,,0.03,0.0,WeatherDisplay:10.37,2013-07-15 06:03:00,
2013-07-15 01:08:00,70.0,66.6,30.01,West,270,0.0,0.0,89,0.03,RA,,0.03,0.0,WeatherDisplay:10.37,2013-07-15 06:08:00,
2013-07-15 01:14:00,70.0,66.6,30.01,NW,315,0.0,0.0,89,0.03,CLR,,0.03,0.0,WeatherDisplay:10.37,2013-07-15 06:14:00,
2013-07-15 01:19:00,70.0,66.6,30.01,ESE,112,0.0,0.0,89,0.03,CLR,,0.03,0.0,WeatherDisplay:10.37,2013-07-15 06:19:00,
2013-07-15 01:24:00,70.0,66.6,30.01,SE,135,0.0,0.0,89,0.03,CLR,,0.03,0.0,WeatherDisplay:10.37,2013-07-15 06:24:00,
2013-07-15 01:29:00,70.0,66.6,30.02,WSW,248,0.0,0.0,89,0.03,CLR,,0.03,0.0,WeatherDisplay:10.37,2013-07-15 06:29:00,
2013-07-15 01:34:00,70.0,66.9,30.02,WSW,248,0.0,0.0,90,0.03,CLR,,0.03,0.0,WeatherDisplay:10.37,2013-07-15 06:34:00,
2013-07-15 01:40:00,70.0,66.6,30.02,NNW,338,0.0,0.0,89,0.03,CLR,,0.03,0.0,WeatherDisplay:10.37,2013-07-15 06:40:00,
2013-07-15 01:45:00,70.2,66.8,30.02,SW,225,0.0,0.0,89,0.03,CLR,,0.03,0.0,WeatherDisplay:10.37,2013-07-15 06:45:00,
2013-07-15 01:50:00,70.2,67.1,30.01,SW,225,0.0,0.0,90,0.03,CLR,,0.03,0.0,WeatherDisplay:10.37,2013-07-15 06:50:00,
2013-07-15 01:55:00,70.2,67.1,30.01,SSE,158,0.0,0.0,90,0.03,CLR,,0.03,0.0,WeatherDisplay:10.37,2013-07-15 06:55:00,
2013-07-15 02:00:00,70.2,66.8,30.01,South,180,0.0,0.0,89,0.00,CLR,,0.03,0.0,WeatherDisplay:10.37,2013-07-15 07:00:00,
2013-07-15 02:06:00,70.0,66.9,30.01,SE,135,0.0,0.0,90,0.00,CLR,,0.03,0.0,WeatherDisplay:10.37,2013-07-15 07:06:00,
2013-07-15 02:11:00,70.2,67.1,30.02,SSE,158,0.0,0.0,90,0.00,CLR,,0.03,0.0,WeatherDisplay:10.37,2013-07-15 07:11:00,
2013-07-15 02:16:00,70.0,66.9,30.02,SSE,158,0.0,0.0,90,0.00,CLR,,0.03,0.0,WeatherDisplay:10.37,2013-07-15 07:16:00,
2013-07-15 02:21:00,70.0,66.9,30.02,SSW,202,0.0,0.0,90,0.00,CLR,,0.03,0.0,WeatherDisplay:10.37,2013-07-15 07:21:00,
2013-07-15 02:26:00,70.0,66.9,30.02,WSW,248,0.0,0.0,90,0.00,CLR,,0.03,0.0,WeatherDisplay:10.37,2013-07-15 07:26:00,
2013-07-15 02:31:00,70.0,66.9,30.01,WSW,248,0.0,0.0,90,0.00,CLR,,0.03,0.0,WeatherDisplay:10.37,2013-07-15 07:31:00,
2013-07-15 02:36:00,69.8,66.7,30.01,SW,225,0.0,0.0,90,0.00,CLR,,0.03,0.0,WeatherDisplay:10.37,2013-07-15 07:36:00,
2013-07-15 02:41:00,69.8,66.7,30.01,WNW,292,0.0,0.0,90,0.00,CLR,,0.03,0.0,WeatherDisplay:10.37,2013-07-15 07:41:00,
2013-07-15 02:47:00,70.0,66.9,30.01,WSW,248,0.0,0.0,90,0.00,CLR,,0.03,0.0,WeatherDisplay:10.37,2013-07-15 07:47:00,
2013-07-15 02:52:00,70.0,66.9,30.01,WSW,248,0.0,0.0,90,0.00,CLR,,0.03,0.0,WeatherDisplay:10.37,2013-07-15 07:52:00,
2013-07-15 02:57:00,70.0,66.6,30.01,South,180,0.0,0.0,89,0.00,CLR,,0.03,0.0,WeatherDisplay:10.37,2013-07-15 07:57:00,
2013-07-15 03:02:00,70.0,66.6,30.01,SW,225,0.0,0.0,89,0.00,CLR,,0.03,0.0,WeatherDisplay:10.37,2013-07-15 08:02:00,
2013-07-15 03:08:00,70.0,66.6,30.01,West,270,0.0,0.0,89,0.00,CLR,,0.03,0.0,WeatherDisplay:10.37,2013-07-15 08:08:00,
2013-07-15 03:13:00,69.4,66.1,30.00,SW,225,0.0,0.0,89,0.00,CLR,,0.03,0.0,WeatherDisplay:10.37,2013-07-15 08:13:00,
2013-07-15 03:18:00,69.4,66.1,30.00,WSW,248,0.0,0.0,89,0.00,CLR,,0.03,0.0,WeatherDisplay:10.37,2013-07-15 08:18:00,
2013-07-15 03:23:00,69.4,66.4,30.00,WSW,248,0.0,0.0,90,0.00,CLR,,0.03,0.0,WeatherDisplay:10.37,2013-07-15 08:23:00,
2013-07-15 03:28:00,69.4,66.4,30.00,WSW,248,0.0,0.0,90,0.00,CLR,,0.03,0.0,WeatherDisplay:10.37,2013-07-15 08:28:00,
2013-07-15 03:33:00,69.4,66.4,30.00,SW,225,0.0,0.0,90,0.00,CLR,,0.03,0.0,WeatherDisplay:10.37,2013-07-15 08:33:00,
2013-07-15 03:38:00,69.3,66.2,30.00,SW,225,0.0,0.0,90,0.00,CLR,,0.03,0.0,WeatherDisplay:10.37,2013-07-15 08:38:00,
2013-07-15 03:43:00,69.3,66.2,30.00,SSE,158,0.0,0.0,90,0.00,CLR,,0.03,0.0,WeatherDisplay:10.37,2013-07-15 08:43:00,
2013-07-15 03:49:00,69.4,66.4,30.02,SSE,158,1.2,1.2,90,0.00,CLR,,0.03,0.0,WeatherDisplay:10.37,2013-07-15 08:49:00,
2013-07-15 03:54:00,69.4,66.4,30.02,SW,225,1.2,1.2,90,0.00,CLR,,0.03,0.0,WeatherDisplay:10.37,2013-07-15 08:54:00,
2013-07-15 03:59:00,69.4,66.4,30.02,SW,225,0.0,0.3,90,0.00,CLR,,0.03,0.0,WeatherDisplay:10.37,2013-07-15 08:59:00,
2013-07-15 04:04:00,69.3,66.2,30.02,South,180,0.0,0.2,90,0.00,CLR,,0.03,0.0,WeatherDisplay:10.37,2013-07-15 09:04:00,
2013-07-15 04:09:00,69.1,66.0,30.02,SSW,202,0.0,0.0,90,0.00,CLR,,0.06,0.0,WeatherDisplay:10.37,2013-07-15 09:09:00,
2013-07-15 04:15:00,69.3,66.2,30.02,SW,225,2.3,2.3,90,0.03,RA,,0.06,0.0,WeatherDisplay:10.37,2013-07-15 09:15:00,
2013-07-15 04:20:00,69.3,66.2,30.02,SE,135,2.3,2.3,90,0.03,,,0.06,0.0,WeatherDisplay:10.37,2013-07-15 09:20:00,
2013-07-15 04:25:00,69.1,66.0,30.02,SSE,158,2.3,2.3,90,0.03,CLR,,0.06,0.0,WeatherDisplay:10.37,2013-07-15 09:25:00,
2013-07-15 04:31:00,69.3,66.2,30.01,SSE,158,1.2,1.2,90,0.03,CLR,,0.06,0.0,WeatherDisplay:10.37,2013-07-15 09:31:00,
2013-07-15 04:36:00,69.3,66.2,30.01,SSE,158,0.0,0.3,90,0.06,RA,,0.09,0.0,WeatherDisplay:10.37,2013-07-15 09:36:00,
2013-07-15 04:41:00,69.1,66.0,30.01,SW,225,0.0,0.2,90,0.06,RA,,0.09,0.0,WeatherDisplay:10.37,2013-07-15 09:41:00,
2013-07-15 04:46:00,69.3,66.2,30.01,SSW,202,1.2,1.2,90,0.06,CLR,,0.09,0.0,WeatherDisplay:10.37,2013-07-15 09:46:00,
2013-07-15 04:51:00,69.3,66.2,30.02,SE,135,0.0,0.1,90,0.06,CLR,,0.09,0.0,WeatherDisplay:10.37,2013-07-15 09:51:00,
2013-07-15 04:56:00,69.1,66.0,30.02,SSE,158,0.0,0.2,90,0.06,CLR,,0.09,0.0,WeatherDisplay:10.37,2013-07-15 09:56:00,
2013-07-15 05:01:00,69.3,66.2,30.02,SSE,158,2.3,2.3,90,0.06,CLR,,0.09,0.0,WeatherDisplay:10.37,2013-07-15 10:01:00,
2013-07-15 05:07:00,69.3,66.2,30.02,SSE,158,2.3,2.3,90,0.09,RA,,0.13,0.0,WeatherDisplay:10.37,2013-07-15 10:07:00,
2013-07-15 05:12:00,69.3,66.2,30.01,ESE,112,2.3,2.3,90,0.06,RA,,0.13,0.0,WeatherDisplay:10.37,2013-07-15 10:12:00,
2013-07-15 05:17:00,69.3,66.2,30.01,SSE,158,0.0,0.9,90,0.09,RA,,0.16,0.0,WeatherDisplay:10.37,2013-07-15 10:17:00,
2013-07-15 05:22:00,69.3,66.2,30.01,SE,135,0.0,0.6,90,0.13,RA,,0.19,0.0,WeatherDisplay:10.37,2013-07-15 10:22:00,
2013-07-15 05:28:00,68.9,65.5,30.01,South,180,0.0,0.0,89,0.13,RA,,0.19,0.0,WeatherDisplay:10.37,2013-07-15 10:28:00,
2013-07-15 05:33:00,68.9,65.5,30.00,South,180,0.0,0.0,89,0.13,,,0.19,0.0,WeatherDisplay:10.37,2013-07-15 10:33:00,
2013-07-15 05:38:00,69.1,66.0,30.00,SSW,202,0.0,0.0,90,0.13,RA,,0.22,0.0,WeatherDisplay:10.37,2013-07-15 10:38:00,
2013-07-15 05:43:00,68.7,65.3,30.00,SSW,202,0.0,0.0,89,0.13,RA,,0.22,0.0,WeatherDisplay:10.37,2013-07-15 10:43:00,
2013-07-15 05:48:00,68.7,65.3,30.00,South,180,0.0,0.0,89,0.13,,,0.22,0.0,WeatherDisplay:10.37,2013-07-15 10:48:00,
2013-07-15 05:54:00,68.7,65.3,30.03,WSW,248,0.0,0.0,89,0.13,CLR,,0.22,0.0,WeatherDisplay:10.37,2013-07-15 10:54:00,
2013-07-15 05:59:00,68.7,65.3,30.03,SSW,202,1.6,0.0,89,0.13,CLR,,0.22,0.0,WeatherDisplay:10.37,2013-07-15 10:59:00,
2013-07-15 06:04:00,68.7,65.3,30.03,SSE,158,0.0,0.1,89,0.13,OVC,,0.22,0.0,WeatherDisplay:10.37,2013-07-15 11:04:00,
2013-07-15 06:09:00,68.7,65.3,30.03,SSE,158,0.0,0.1,89,0.09,OVC,,0.22,0.0,WeatherDisplay:10.37,2013-07-15 11:09:00,
2013-07-15 06:14:00,68.9,65.8,30.03,SSE,158,0.0,0.0,90,0.09,OVC,,0.22,0.0,WeatherDisplay:10.37,2013-07-15 11:14:00,
2013-07-15 06:19:00,68.9,65.8,30.03,SSE,158,0.0,0.0,90,0.06,OVC,,0.22,0.0,WeatherDisplay:10.37,2013-07-15 11:19:00,
2013-07-15 06:24:00,68.9,65.8,30.03,SE,135,2.3,2.3,90,0.03,OVC,,0.22,0.0,WeatherDisplay:10.37,2013-07-15 11:24:00,
2013-07-15 06:29:00,68.9,65.8,30.03,SE,135,0.0,0.5,90,0.03,OVC,,0.22,0.0,WeatherDisplay:10.37,2013-07-15 11:29:00,
2013-07-15 06:34:00,68.9,65.8,30.03,SSE,158,0.0,0.8,90,0.06,RA,,0.25,0.0,WeatherDisplay:10.37,2013-07-15 11:34:00,
2013-07-15 06:39:00,68.9,65.8,30.03,WSW,248,0.0,0.5,90,0.03,RA,,0.25,0.0,WeatherDisplay:10.37,2013-07-15 11:39:00,
2013-07-15 06:45:00,68.7,65.7,30.03,SE,135,0.0,0.0,90,0.03,OVC,,0.25,0.0,WeatherDisplay:10.37,2013-07-15 11:45:00,
2013-07-15 06:50:00,68.9,65.8,30.03,SSE,158,0.0,0.0,90,0.03,OVC,,0.25,0.0,WeatherDisplay:10.37,2013-07-15 11:50:00,
2013-07-15 06:55:00,68.9,65.8,30.03,SSE,158,0.0,0.0,90,0.03,OVC,,0.25,0.0,WeatherDisplay:10.37,2013-07-15 11:55:00,
2013-07-15 07:00:00,68.7,65.7,30.03,NNE,22,0.0,0.0,90,0.06,RA,,0.28,0.0,WeatherDisplay:10.37,2013-07-15 12:00:00,
2013-07-15 07:05:00,68.9,65.8,30.03,NNE,22,0.0,0.1,90,0.06,RA,,0.28,0.0,WeatherDisplay:10.37,2013-07-15 12:05:00,
2013-07-15 07:10:00,68.7,65.7,30.03,ESE,112,2.3,2.3,90,0.06,OVC,,0.28,0.0,WeatherDisplay:10.37,2013-07-15 12:10:00,
2013-07-15 07:15:00,68.9,65.8,30.03,SSE,158,0.0,0.8,90,0.06,OVC,,0.28,0.0,WeatherDisplay:10.37,2013-07-15 12:15:00,
2013-07-15 07:20:00,68.7,65.7,30.03,SSE,158,0.0,0.3,90,0.06,OVC,,0.28,0.0,WeatherDisplay:10.37,2013-07-15 12:20:00,
2013-07-15 07:25:00,68.9,65.8,30.03,SSW,202,0.0,0.2,90,0.09,RA,,0.31,0.0,WeatherDisplay:10.37,2013-07-15 12:25:00,
2013-07-15 07:31:00,68.9,65.8,30.04,SSE,158,0.0,0.1,90,0.09,RA,,0.31,0.0,WeatherDisplay:10.37,2013-07-15 12:31:00,
2013-07-15 07:36:00,68.9,65.8,30.04,WSW,248,0.0,0.1,90,0.06,OVC,,0.31,0.0,WeatherDisplay:10.37,2013-07-15 12:36:00,
2013-07-15 07:41:00,68.9,65.8,30.04,SE,135,1.2,1.2,90,0.06,OVC,,0.31,0.0,WeatherDisplay:10.37,2013-07-15 12:41:00,
2013-07-15 07:46:00,68.9,65.8,30.04,SSE,158,1.2,1.2,90,0.06,OVC,,0.31,0.0,WeatherDisplay:10.37,2013-07-15 12:46:00,
2013-07-15 07:51:00,68.9,65.8,30.05,ESE,112,0.0,0.3,90,0.06,OVC,,0.31,0.0,WeatherDisplay:10.37,2013-07-15 12:51:00,
2013-07-15 07:56:00,68.9,65.8,30.05,ESE,112,1.2,1.2,90,0.06,OVC,,0.31,0.0,WeatherDisplay:10.37,2013-07-15 12:56:00,
2013-07-15 08:01:00,68.9,65.8,30.05,ESE,112,0.0,0.2,90,0.06,RA,,0.35,0.0,WeatherDisplay:10.37,2013-07-15 13:01:00,
2013-07-15 08:06:00,69.3,66.2,30.05,SE,135,1.8,1.8,90,0.06,RA,,0.35,0.0,WeatherDisplay:10.37,2013-07-15 13:06:00,
2013-07-15 08:12:00,69.3,66.2,30.06,South,180,0.0,0.3,90,0.06,OVC,,0.35,0.0,WeatherDisplay:10.37,2013-07-15 13:12:00,
2013-07-15 08:17:00,69.3,66.2,30.06,SW,225,0.0,0.5,90,0.06,OVC,,0.35,0.0,WeatherDisplay:10.37,2013-07-15 13:17:00,
2013-07-15 08:22:00,69.3,66.2,30.06,WSW,248,0.0,0.3,90,0.06,OVC,,0.35,0.0,WeatherDisplay:10.37,2013-07-15 13:22:00,
2013-07-15 08:27:00,69.3,66.2,30.06,ESE,112,3.5,3.5,90,0.03,OVC,,0.35,0.0,WeatherDisplay:10.37,2013-07-15 13:27:00,
2013-07-15 08:32:00,69.3,66.2,30.07,SE,135,2.3,2.3,90,0.06,RA,,0.38,0.0,WeatherDisplay:10.37,2013-07-15 13:32:00,
2013-07-15 08:38:00,69.1,66.0,30.07,SE,135,1.2,1.2,90,0.06,RA,,0.38,0.0,WeatherDisplay:10.37,2013-07-15 13:38:00,
2013-07-15 08:43:00,69.3,66.2,30.07,SE,135,4.6,4.6,90,0.06,OVC,,0.38,0.0,WeatherDisplay:10.37,2013-07-15 13:43:00,
2013-07-15 08:48:00,69.4,66.7,30.07,ESE,112,1.2,1.5,91,0.06,OVC,,0.38,0.0,WeatherDisplay:10.37,2013-07-15 13:48:00,
2013-07-15 08:53:00,69.4,66.7,30.07,ESE,112,2.3,2.3,91,0.06,OVC,,0.38,0.0,WeatherDisplay:10.37,2013-07-15 13:53:00,
2013-07-15 08:58:00,69.4,66.7,30.07,ESE,112,2.3,2.3,91,0.06,OVC,,0.38,0.0,WeatherDisplay:10.37,2013-07-15 13:58:00,
2013-07-15 09:03:00,69.4,66.7,30.07,ESE,112,3.5,3.5,91,0.03,OVC,,0.38,0.0,WeatherDisplay:10.37,2013-07-15 14:03:00,
2013-07-15 09:08:00,69.6,66.9,30.07,ESE,112,2.3,2.3,91,0.03,OVC,,0.38,0.0,WeatherDisplay:10.37,2013-07-15 14:08:00,
2013-07-15 09:14:00,69.8,67.1,30.08,ESE,112,3.5,3.5,91,0.03,OVC,,0.38,0.0,WeatherDisplay:10.37,2013-07-15 14:14:00,
2013-07-15 09:19:00,70.0,67.2,30.08,ESE,112,3.5,3.5,91,0.03,OVC,,0.38,0.0,WeatherDisplay:10.37,2013-07-15 14:19:00,
2013-07-15 09:24:00,70.0,67.2,30.08,SE,135,3.6,3.6,91,0.03,OVC,,0.38,0.0,WeatherDisplay:10.37,2013-07-15 14:24:00,
2013-07-15 09:29:00,70.2,67.4,30.07,East,90,2.3,2.3,91,0.03,OVC,,0.38,0.0,WeatherDisplay:10.37,2013-07-15 14:29:00,
2013-07-15 09:34:00,70.3,67.6,30.07,ESE,112,2.3,2.3,91,0.00,OVC,,0.38,0.0,WeatherDisplay:10.37,2013-07-15 14:34:00,
2013-07-15 09:39:00,70.3,67.6,30.07,ESE,112,2.3,2.3,91,0.00,OVC,,0.38,0.0,WeatherDisplay:10.37,2013-07-15 14:39:00,
2013-07-15 09:44:00,70.3,67.6,30.07,ESE,112,2.3,2.3,91,0.00,OVC,,0.38,0.0,WeatherDisplay:10.37,2013-07-15 14:44:00,
2013-07-15 09:50:00,70.7,67.9,30.07,ESE,112,2.3,2.3,91,0.00,OVC,,0.38,0.0,WeatherDisplay:10.37,2013-07-15 14:50:00,
2013-07-15 09:55:00,70.7,67.6,30.07,ESE,112,3.5,3.5,90,0.00,OVC,,0.38,0.0,WeatherDisplay:10.37,2013-07-15 14:55:00,
2013-07-15 10:00:00,70.7,67.6,30.07,ESE,112,4.6,4.6,90,0.00,OVC,,0.38,0.0,WeatherDisplay:10.37,2013-07-15 15:00:00,
2013-07-15 10:06:00,71.1,68.3,30.07,East,90,1.3,2.0,91,0.00,OVC,,0.38,0.0,WeatherDisplay:10.37,2013-07-15 15:06:00,
2013-07-15 10:11:00,71.1,68.3,30.08,ESE,112,4.6,4.6,91,0.00,OVC,,0.38,0.0,WeatherDisplay:10.37,2013-07-15 15:11:00,
2013-07-15 10:17:00,70.9,67.8,30.08,ESE,112,1.2,2.2,90,0.00,OVC,,0.38,0.0,WeatherDisplay:10.37,2013-07-15 15:17:00,
2013-07-15 10:22:00,71.1,68.0,30.08,SE,135,0.0,1.3,90,0.00,OVC,,0.38,0.0,WeatherDisplay:10.37,2013-07-15 15:22:00,
2013-07-15 10:27:00,70.9,67.8,30.08,SE,135,2.3,2.3,90,0.00,OVC,,0.38,0.0,WeatherDisplay:10.37,2013-07-15 15:27:00,
2013-07-15 10:32:00,71.1,68.0,30.09,ESE,112,2.0,2.1,90,0.00,OVC,,0.38,0.0,WeatherDisplay:10.37,2013-07-15 15:32:00,
2013-07-15 10:38:00,71.4,68.3,30.09,SE,135,3.5,3.5,90,0.00,OVC,,0.38,0.0,WeatherDisplay:10.37,2013-07-15 15:38:00,
2013-07-15 10:43:00,71.4,68.3,30.09,ESE,112,3.5,3.5,90,0.00,OVC,,0.38,0.0,WeatherDisplay:10.37,2013-07-15 15:43:00,
2013-07-15 10:49:00,71.2,68.2,30.08,ESE,112,2.3,2.3,90,0.00,OVC,,0.38,0.0,WeatherDisplay:10.37,2013-07-15 15:49:00,
2013-07-15 10:54:00,71.4,68.3,30.08,NE,45,1.6,1.6,90,0.00,OVC,,0.38,0.0,WeatherDisplay:10.37,2013-07-15 15:54:00,
2013-07-15 10:59:00,71.4,68.3,30.08,WNW,292,1.2,1.2,90,0.00,OVC,,0.38,0.0,WeatherDisplay:10.37,2013-07-15 15:59:00,
2013-07-15 11:05:00,71.2,68.2,30.08,East,90,1.2,1.2,90,0.00,OVC,,0.38,0.0,WeatherDisplay:10.37,2013-07-15 16:05:00,
2013-07-15 11:10:00,71.4,68.0,30.09,ESE,112,3.5,3.5,89,0.00,OVC,,0.38,0.0,WeatherDisplay:10.37,2013-07-15 16:10:00,
2013-07-15 11:15:00,71.4,68.0,30.09,ESE,112,4.6,4.6,89,0.00,OVC,,0.38,0.0,WeatherDisplay:10.37,2013-07-15 16:15:00,
2013-07-15 11:20:00,71.4,68.0,30.09,SE,135,2.3,2.8,89,0.00,OVC,,0.38,0.0,WeatherDisplay:10.37,2013-07-15 16:20:00,
2013-07-15 11:25:00,71.4,68.0,30.09,ESE,112,1.2,2.3,89,0.00,OVC,,0.38,0.0,WeatherDisplay:10.37,2013-07-15 16:25:00,
2013-07-15 11:31:00,71.4,68.0,30.09,ESE,112,2.6,2.6,89,0.00,OVC,,0.38,0.0,WeatherDisplay:10.37,2013-07-15 16:31:00,
2013-07-15 11:36:00,71.2,67.8,30.09,ESE,112,2.4,2.4,89,0.00,OVC,,0.38,0.0,WeatherDisplay:10.37,2013-07-15 16:36:00,
2013-07-15 11:41:00,71.4,68.0,30.09,SSE,158,1.2,1.4,89,0.00,OVC,,0.38,0.0,WeatherDisplay:10.37,2013-07-15 16:41:00,
2013-07-15 11:47:00,71.4,68.0,30.09,NW,315,0.0,0.3,89,0.00,OVC,,0.38,0.0,WeatherDisplay:10.37,2013-07-15 16:47:00,
2013-07-15 11:52:00,71.2,67.8,30.10,NW,315,0.0,0.1,89,0.00,OVC,,0.38,0.0,WeatherDisplay:10.37,2013-07-15 16:52:00,
2013-07-15 11:57:00,71.2,67.8,30.10,NNE,22,0.0,0.0,89,0.00,OVC,,0.38,0.0,WeatherDisplay:10.37,2013-07-15 16:57:00,
2013-07-15 12:03:00,71.4,68.0,30.10,ESE,112,0.0,0.0,89,0.00,OVC,,0.38,0.0,WeatherDisplay:10.37,2013-07-15 17:03:00,
2013-07-15 12:08:00,71.4,68.0,30.10,ESE,112,0.0,0.0,89,0.00,OVC,,0.38,0.0,WeatherDisplay:10.37,2013-07-15 17:08:00,
2013-07-15 12:14:00,71.2,67.8,30.09,ESE,112,1.3,1.3,89,0.03,RA,,0.41,0.0,WeatherDisplay:10.37,2013-07-15 17:14:00,
2013-07-15 12:19:00,71.4,68.0,30.09,ESE,112,2.3,2.3,89,0.03,RA,,0.41,0.0,WeatherDisplay:10.37,2013-07-15 17:19:00,
2013-07-15 12:24:00,71.4,68.0,30.09,ESE,112,3.8,3.8,89,0.03,OVC,,0.41,0.0,WeatherDisplay:10.37,2013-07-15 17:24:00,
2013-07-15 12:29:00,71.4,68.3,30.10,ESE,112,3.5,3.5,90,0.07,RA,,0.44,0.0,WeatherDisplay:10.37,2013-07-15 17:29:00,
2013-07-15 12:35:00,71.4,68.0,30.10,ENE,68,2.3,2.3,89,0.07,OVC,,0.44,0.0,WeatherDisplay:10.37,2013-07-15 17:35:00,
2013-07-15 12:40:00,71.4,68.0,30.10,ENE,68,2.3,2.3,89,0.10,RA,,0.48,0.0,WeatherDisplay:10.37,2013-07-15 17:40:00,
2013-07-15 12:45:00,71.4,68.0,30.10,ENE,68,1.4,1.4,89,0.13,RA,,0.51,0.0,WeatherDisplay:10.37,2013-07-15 17:45:00,
2013-07-15 12:50:00,71.2,68.2,30.11,ENE,68,0.0,0.9,90,0.13,RA,,0.51,0.0,WeatherDisplay:10.37,2013-07-15 17:50:00,
2013-07-15 12:55:00,71.2,68.2,30.11,SE,135,0.0,0.8,90,0.16,RA,,0.54,0.0,WeatherDisplay:10.37,2013-07-15 17:55:00,
2013-07-15 13:00:00,71.2,68.2,30.11,ESE,112,0.0,0.2,90,0.16,RA,,0.54,0.0,WeatherDisplay:10.37,2013-07-15 18:00:00,
2013-07-15 13:06:00,71.4,68.3,30.11,SE,135,0.0,0.0,90,0.19,RA,,0.57,0.0,WeatherDisplay:10.37,2013-07-15 18:06:00,
2013-07-15 13:12:00,71.4,68.3,30.10,East,90,2.4,2.4,90,0.22,RA,,0.60,0.0,WeatherDisplay:10.37,2013-07-15 18:12:00,
2013-07-15 13:17:00,71.1,68.0,30.10,ESE,112,1.2,1.2,90,0.22,RA,,0.63,0.0,WeatherDisplay:10.37,2013-07-15 18:17:00,
2013-07-15 13:22:00,70.9,67.8,30.10,SE,135,0.0,0.3,90,0.26,RA,,0.67,0.0,WeatherDisplay:10.37,2013-07-15 18:22:00,
2013-07-15 13:27:00,71.1,68.0,30.10,ESE,112,0.0,0.2,90,0.25,RA,,0.70,0.0,WeatherDisplay:10.37,2013-07-15 18:27:00,
2013-07-15 13:33:00,71.1,68.0,30.10,SSW,202,3.5,3.5,90,0.25,RA,,0.70,0.0,WeatherDisplay:10.37,2013-07-15 18:33:00,
2013-07-15 13:38:00,70.9,67.8,30.10,SSE,158,0.0,1.2,90,0.22,OVC,,0.70,0.0,WeatherDisplay:10.37,2013-07-15 18:38:00,
2013-07-15 13:43:00,70.7,67.6,30.10,SW,225,1.2,1.2,90,0.22,RA,,0.73,0.0,WeatherDisplay:10.37,2013-07-15 18:43:00,
2013-07-15 13:49:00,70.7,67.6,30.10,South,180,0.0,0.1,90,0.22,OVC,,0.73,0.0,WeatherDisplay:10.37,2013-07-15 18:49:00,
2013-07-15 13:54:00,70.7,67.6,30.10,ESE,112,0.0,0.1,90,0.19,OVC,,0.73,0.0,WeatherDisplay:10.37,2013-07-15 18:54:00,
2013-07-15 13:59:00,70.9,68.1,30.10,ENE,68,0.0,0.0,91,0.22,RA,,0.76,0.0,WeatherDisplay:10.37,2013-07-15 18:59:00,
2013-07-15 14:05:00,71.1,68.3,30.10,ESE,112,0.0,0.0,91,0.22,RA,,0.79,0.0,WeatherDisplay:10.37,2013-07-15 19:05:00,
2013-07-15 14:11:00,71.1,68.3,30.10,SSE,158,1.2,1.2,91,0.22,RA,,0.79,0.0,WeatherDisplay:10.37,2013-07-15 19:11:00,
2013-07-15 14:16:00,71.1,68.3,30.10,SE,135,2.3,2.3,91,0.19,RA,,0.82,0.0,WeatherDisplay:10.37,2013-07-15 19:16:00,
2013-07-15 14:21:00,70.9,68.1,30.10,SSE,158,4.6,4.6,91,0.19,RA,,0.85,0.0,WeatherDisplay:10.37,2013-07-15 19:21:00,
2013-07-15 14:26:00,70.7,67.6,30.10,East,90,3.5,3.5,90,0.22,RA,,0.89,0.0,WeatherDisplay:10.37,2013-07-15 19:26:00,
2013-07-15 14:27:00,70.7,67.6,30.10,East,90,3.5,3.5,90,0.19,RA,,0.89,0.0,WeatherDisplay:10.37,2013-07-15 19:27:00,
2013-07-15 14:33:00,70.7,67.6,30.11,ESE,112,4.6,4.6,90,0.22,RA,,0.92,0.0,WeatherDisplay:10.37,2013-07-15 19:33:00,
2013-07-15 14:38:00,70.7,67.6,30.11,East,90,2.3,3.7,90,0.22,RA,,0.92,0.0,WeatherDisplay:10.37,2013-07-15 19:38:00,
2013-07-15 14:43:00,70.7,67.6,30.11,East,90,3.5,3.5,90,0.19,OVC,,0.92,0.0,WeatherDisplay:10.37,2013-07-15 19:43:00,
2013-07-15 14:49:00,70.7,67.6,30.10,East,90,2.3,2.3,90,0.19,OVC,,0.92,0.0,WeatherDisplay:10.37,2013-07-15 19:49:00,
2013-07-15 14:54:00,70.7,67.6,30.10,East,90,1.2,1.6,90,0.19,OVC,,0.92,0.0,WeatherDisplay:10.37,2013-07-15 19:54:00,
2013-07-15 14:59:00,70.7,67.6,30.10,ESE,112,2.4,2.4,90,0.16,OVC,,0.92,0.0,WeatherDisplay:10.37,2013-07-15 19:59:00,
2013-07-15 15:05:00,70.9,68.1,30.10,East,90,1.2,1.2,91,0.13,OVC,,0.92,0.0,WeatherDisplay:10.37,2013-07-15 20:05:00,
2013-07-15 15:10:00,71.1,68.3,30.08,East,90,1.2,1.3,91,0.13,OVC,,0.92,0.0,WeatherDisplay:10.37,2013-07-15 20:10:00,
2013-07-15 15:15:00,70.9,68.1,30.08,ESE,112,2.3,2.3,91,0.10,OVC,,0.92,0.0,WeatherDisplay:10.37,2013-07-15 20:15:00,
2013-07-15 15:20:00,71.1,68.3,30.08,ENE,68,2.3,2.3,91,0.10,OVC,,0.92,0.0,WeatherDisplay:10.37,2013-07-15 20:20:00,
2013-07-15 15:26:00,71.1,68.3,30.08,ESE,112,1.2,1.2,91,0.04,OVC,,0.92,0.0,WeatherDisplay:10.37,2013-07-15 20:26:00,
2013-07-15 15:31:00,71.1,68.3,30.09,ESE,112,3.5,3.5,91,0.00,OVC,,0.92,0.0,WeatherDisplay:10.37,2013-07-15 20:31:00,
2013-07-15 15:36:00,71.1,68.3,30.09,East,90,0.0,1.2,91,0.00,OVC,,0.92,0.0,WeatherDisplay:10.37,2013-07-15 20:36:00,
2013-07-15 15:41:00,71.2,68.5,30.09,ESE,112,2.3,2.3,91,0.00,OVC,,0.92,0.0,WeatherDisplay:10.37,2013-07-15 20:41:00,
2013-07-15 15:46:00,71.4,68.7,30.09,SE,135,2.3,2.3,91,0.00,OVC,,0.92,0.0,WeatherDisplay:10.37,2013-07-15 20:46:00,
2013-07-15 15:52:00,71.2,68.5,30.09,ESE,112,3.5,3.5,91,0.03,RA,,0.95,0.0,WeatherDisplay:10.37,2013-07-15 20:52:00,
2013-07-15 15:58:00,71.4,69.0,30.09,ESE,112,1.2,1.6,92,0.03,RA,,0.95,0.0,WeatherDisplay:10.37,2013-07-15 20:58:00,
2013-07-15 16:04:00,71.6,69.2,30.09,ESE,112,1.2,1.2,92,0.03,OVC,,0.95,0.0,WeatherDisplay:10.37,2013-07-15 21:04:00,
2013-07-15 16:09:00,71.6,69.2,30.09,East,90,3.5,3.5,92,0.03,OVC,,0.95,0.0,WeatherDisplay:10.37,2013-07-15 21:09:00,
2013-07-15 16:15:00,71.8,69.3,30.09,ESE,112,3.5,3.5,92,0.06,RA,,0.98,0.0,WeatherDisplay:10.37,2013-07-15 21:15:00,
2013-07-15 16:20:00,72.0,69.5,30.09,ESE,112,1.2,1.7,92,0.06,RA,,0.98,0.0,WeatherDisplay:10.37,2013-07-15 21:20:00,
2013-07-15 16:25:00,72.1,69.7,30.09,ENE,68,3.5,3.5,92,0.06,OVC,,0.98,0.0,WeatherDisplay:10.37,2013-07-15 21:25:00,
2013-07-15 16:30:00,72.1,69.7,30.09,SE,135,3.5,3.5,92,0.06,OVC,,0.98,0.0,WeatherDisplay:10.37,2013-07-15 21:30:00,
2013-07-15 16:36:00,72.1,69.7,30.09,SE,135,2.3,2.3,92,0.06,OVC,,0.98,0.0,WeatherDisplay:10.37,2013-07-15 21:36:00,
2013-07-15 16:42:00,72.1,69.7,30.09,ESE,112,3.7,3.7,92,0.06,OVC,,0.98,0.0,WeatherDisplay:10.37,2013-07-15 21:42:00,
2013-07-15 16:47:00,72.3,69.9,30.09,East,90,4.6,4.6,92,0.06,OVC,,0.98,0.0,WeatherDisplay:10.37,2013-07-15 21:47:00,
2013-07-15 16:52:00,72.5,70.0,30.08,ESE,112,4.6,4.6,92,0.03,OVC,,0.98,0.0,WeatherDisplay:10.37,2013-07-15 21:52:00,
2013-07-15 16:58:00,72.5,70.0,30.08,ENE,68,3.5,3.5,92,0.03,OVC,,0.98,0.0,WeatherDisplay:10.37,2013-07-15 21:58:00,
2013-07-15 17:04:00,72.5,70.0,30.08,ESE,112,5.8,5.8,92,0.03,OVC,,0.98,0.0,WeatherDisplay:10.37,2013-07-15 22:04:00,
2013-07-15 17:10:00,72.7,70.2,30.08,ESE,112,2.3,3.0,92,0.03,OVC,,0.98,0.0,WeatherDisplay:10.37,2013-07-15 22:10:00,
2013-07-15 17:15:00,72.9,70.4,30.08,ESE,112,3.5,3.5,92,0.00,OVC,,0.98,0.0,WeatherDisplay:10.37,2013-07-15 22:15:00,
2013-07-15 17:21:00,72.9,70.4,30.08,ESE,112,4.6,4.6,92,0.00,OVC,,0.98,0.0,WeatherDisplay:10.37,2013-07-15 22:21:00,
2013-07-15 17:27:00,72.9,70.4,30.08,ESE,112,3.5,3.5,92,0.00,OVC,,0.98,0.0,WeatherDisplay:10.37,2013-07-15 22:27:00,
2013-07-15 17:33:00,73.0,70.9,30.08,ESE,112,4.6,4.6,93,0.00,OVC,,0.98,0.0,WeatherDisplay:10.37,2013-07-15 22:33:00,
2013-07-15 17:39:00,73.2,71.1,30.08,ESE,112,2.3,3.1,93,0.00,OVC,,0.98,0.0,WeatherDisplay:10.37,2013-07-15 22:39:00,
2013-07-15 17:44:00,73.0,70.6,30.08,ESE,112,4.6,4.6,92,0.00,OVC,,0.98,0.0,WeatherDisplay:10.37,2013-07-15 22:44:00,
2013-07-15 17:49:00,73.2,70.8,30.07,East,90,4.6,4.6,92,0.00,OVC,,0.98,0.0,WeatherDisplay:10.37,2013-07-15 22:49:00,
2013-07-15 17:54:00,73.4,70.9,30.07,East,90,6.9,6.9,92,0.00,OVC,,0.98,0.0,WeatherDisplay:10.37,2013-07-15 22:54:00,
2013-07-15 17:59:00,73.2,70.8,30.07,SE,135,4.6,4.6,92,0.00,OVC,,0.98,0.0,WeatherDisplay:10.37,2013-07-15 22:59:00,
2013-07-15 18:05:00,73.4,70.9,30.07,ESE,112,2.3,3.3,92,0.00,OVC,,0.98,0.0,WeatherDisplay:10.37,2013-07-15 23:05:00,
2013-07-15 18:10:00,73.2,70.8,30.06,ESE,112,3.5,3.5,92,0.00,OVC,,0.98,0.0,WeatherDisplay:10.37,2013-07-15 23:10:00,
2013-07-15 18:15:00,73.6,71.1,30.06,East,90,4.6,4.6,92,0.00,OVC,,0.98,0.0,WeatherDisplay:10.37,2013-07-15 23:15:00,
2013-07-15 18:21:00,73.6,71.1,30.06,SE,135,4.6,4.6,92,0.00,OVC,,0.98,0.0,WeatherDisplay:10.37,2013-07-15 23:21:00,
2013-07-15 18:26:00,73.4,70.9,30.06,NE,45,4.6,4.6,92,0.00,OVC,,0.98,0.0,WeatherDisplay:10.37,2013-07-15 23:26:00,
2013-07-15 18:31:00,73.4,70.9,30.07,ESE,112,5.8,5.8,92,0.00,OVC,,0.98,0.0,WeatherDisplay:10.37,2013-07-15 23:31:00,
2013-07-15 18:37:00,73.2,70.8,30.07,ESE,112,3.5,3.5,92,0.00,OVC,,0.98,0.0,WeatherDisplay:10.37,2013-07-15 23:37:00,
2013-07-15 18:42:00,73.2,70.8,30.07,ESE,112,4.6,4.6,92,0.00,OVC,,0.98,0.0,WeatherDisplay:10.37,2013-07-15 23:42:00,
2013-07-15 18:47:00,73.2,70.8,30.07,ESE,112,3.5,3.5,92,0.00,OVC,,0.98,0.0,WeatherDisplay:10.37,2013-07-15 23:47:00,
2013-07-15 18:52:00,73.2,70.8,30.07,East,90,5.2,5.2,92,0.00,OVC,,0.98,0.0,WeatherDisplay:10.37,2013-07-15 23:52:00,
2013-07-15 18:57:00,73.2,70.8,30.07,ESE,112,3.5,3.6,92,0.00,OVC,,0.98,0.0,WeatherDisplay:10.37,2013-07-15 23:57:00,
2013-07-15 19:03:00,73.2,70.8,30.07,East,90,2.3,3.1,92,0.00,OVC,,0.98,0.0,WeatherDisplay:10.37,2013-07-16 00:03:00,
2013-07-15 19:08:00,73.2,70.8,30.07,East,90,4.6,4.6,92,0.00,OVC,,0.98,0.0,WeatherDisplay:10.37,2013-07-16 00:08:00,
2013-07-15 19:13:00,73.2,70.8,30.08,ESE,112,3.5,3.5,92,0.00,OVC,,0.98,0.0,WeatherDisplay:10.37,2013-07-16 00:13:00,
2013-07-15 19:18:00,73.2,70.8,30.08,East,90,4.6,4.6,92,0.00,OVC,,0.98,0.0,WeatherDisplay:10.37,2013-07-16 00:18:00,
2013-07-15 19:23:00,73.4,70.9,30.08,ESE,112,3.8,3.8,92,0.00,OVC,,0.98,0.0,WeatherDisplay:10.37,2013-07-16 00:23:00,
2013-07-15 19:29:00,73.6,71.1,30.08,ESE,112,6.9,6.9,92,0.00,OVC,,0.98,0.0,WeatherDisplay:10.37,2013-07-16 00:29:00,
2013-07-15 19:34:00,73.2,70.8,30.09,ENE,68,4.6,4.6,92,0.00,OVC,,0.98,0.0,WeatherDisplay:10.37,2013-07-16 00:34:00,
2013-07-15 19:39:00,73.2,70.8,30.09,ESE,112,3.5,3.8,92,0.00,OVC,,0.98,0.0,WeatherDisplay:10.37,2013-07-16 00:39:00,
2013-07-15 19:45:00,73.2,70.8,30.09,East,90,4.9,4.9,92,0.00,OVC,,0.98,0.0,WeatherDisplay:10.37,2013-07-16 00:45:00,
2013-07-15 19:50:00,73.0,70.6,30.09,ENE,68,6.9,6.9,92,0.00,OVC,,0.98,0.0,WeatherDisplay:10.37,2013-07-16 00:50:00,
2013-07-15 19:55:00,73.0,70.6,30.09,NNE,22,3.5,3.5,92,0.00,OVC,,0.98,0.0,WeatherDisplay:10.37,2013-07-16 00:55:00,
2013-07-15 20:00:00,73.0,70.6,30.09,East,90,3.5,3.5,92,0.00,OVC,,0.98,0.0,WeatherDisplay:10.37,2013-07-16 01:00:00,
2013-07-15 20:05:00,73.2,70.8,30.09,East,90,3.5,3.5,92,0.00,OVC,,0.98,0.0,WeatherDisplay:10.37,2013-07-16 01:05:00,
2013-07-15 20:10:00,73.2,70.8,30.09,SSW,202,4.6,4.6,92,0.00,OVC,,0.98,0.0,WeatherDisplay:10.37,2013-07-16 01:10:00,
2013-07-15 20:16:00,73.0,70.6,30.09,ENE,68,3.5,3.5,92,0.00,OVC,,0.98,0.0,WeatherDisplay:10.37,2013-07-16 01:16:00,
2013-07-15 20:21:00,73.0,70.6,30.09,East,90,4.6,4.6,92,0.00,OVC,,0.98,0.0,WeatherDisplay:10.37,2013-07-16 01:21:00,
2013-07-15 20:26:00,73.0,70.6,30.09,ESE,112,3.5,3.5,92,0.00,OVC,,0.98,0.0,WeatherDisplay:10.37,2013-07-16 01:26:00,
2013-07-15 20:32:00,73.0,70.6,30.10,North,0,3.5,3.5,92,0.00,OVC,,0.98,0.0,WeatherDisplay:10.37,2013-07-16 01:32:00,
2013-07-15 20:38:00,73.2,70.8,30.10,ESE,112,3.5,3.5,92,0.00,OVC,,0.98,0.0,WeatherDisplay:10.37,2013-07-16 01:38:00,
2013-07-15 20:43:00,73.2,70.8,30.10,ENE,68,3.6,3.6,92,0.00,OVC,,0.98,0.0,WeatherDisplay:10.37,2013-07-16 01:43:00,
2013-07-15 20:48:00,73.0,70.6,30.10,East,90,2.5,2.5,92,0.00,OVC,,0.98,0.0,WeatherDisplay:10.37,2013-07-16 01:48:00,
2013-07-15 20:54:00,73.0,70.6,30.10,ESE,112,3.5,3.5,92,0.00,OVC,,0.98,0.0,WeatherDisplay:10.37,2013-07-16 01:54:00,
2013-07-15 20:59:00,73.2,70.8,30.10,ENE,68,3.5,3.5,92,0.00,OVC,,0.98,0.0,WeatherDisplay:10.37,2013-07-16 01:59:00,
2013-07-15 21:04:00,73.2,70.8,30.10,ENE,68,3.5,3.5,92,0.00,CLR,,0.98,0.0,WeatherDisplay:10.37,2013-07-16 02:04:00,
2013-07-15 21:09:00,73.2,70.8,30.10,ESE,112,1.2,2.3,92,0.00,CLR,,0.98,0.0,WeatherDisplay:10.37,2013-07-16 02:09:00,
2013-07-15 21:15:00,73.0,70.6,30.10,WNW,292,2.3,2.3,92,0.00,CLR,,0.98,0.0,WeatherDisplay:10.37,2013-07-16 02:15:00,
2013-07-15 21:21:00,73.0,70.6,30.10,ENE,68,2.3,2.3,92,0.00,CLR,,0.98,0.0,WeatherDisplay:10.37,2013-07-16 02:21:00,
2013-07-15 21:26:00,73.0,70.6,30.10,East,90,3.5,3.5,92,0.00,CLR,,0.98,0.0,WeatherDisplay:10.37,2013-07-16 02:26:00,
2013-07-15 21:31:00,73.0,70.6,30.11,ESE,112,2.3,2.3,92,0.00,CLR,,0.98,0.0,WeatherDisplay:10.37,2013-07-16 02:31:00,
2013-07-15 21:36:00,73.0,70.6,30.11,ESE,112,2.3,2.3,92,0.00,CLR,,0.98,0.0,WeatherDisplay:10.37,2013-07-16 02:36:00,
2013-07-15 21:41:00,73.0,70.6,30.11,East,90,2.3,2.3,92,0.00,CLR,,0.98,0.0,WeatherDisplay:10.37,2013-07-16 02:41:00,
2013-07-15 21:46:00,73.2,70.8,30.11,SE,135,3.5,3.5,92,0.00,CLR,,0.98,0.0,WeatherDisplay:10.37,2013-07-16 02:46:00,
2013-07-15 21:51:00,73.2,70.8,30.11,East,90,2.3,2.3,92,0.00,CLR,,0.98,0.0,WeatherDisplay:10.37,2013-07-16 02:51:00,
2013-07-15 21:57:00,73.2,70.8,30.11,ESE,112,2.3,2.3,92,0.00,CLR,,0.98,0.0,WeatherDisplay:10.37,2013-07-16 02:57:00,
2013-07-15 22:02:00,73.2,70.8,30.11,East,90,2.3,2.3,92,0.00,CLR,,0.98,0.0,WeatherDisplay:10.37,2013-07-16 03:02:00,
2013-07-15 22:07:00,73.2,70.8,30.11,ESE,112,2.3,2.3,92,0.00,CLR,,0.98,0.0,WeatherDisplay:10.37,2013-07-16 03:07:00,
2013-07-15 22:12:00,73.2,70.8,30.11,ENE,68,2.3,2.3,92,0.00,CLR,,0.98,0.0,WeatherDisplay:10.37,2013-07-16 03:12:00,
2013-07-15 22:17:00,73.2,71.1,30.11,ESE,112,2.3,2.3,93,0.00,CLR,,0.98,0.0,WeatherDisplay:10.37,2013-07-16 03:17:00,
2013-07-15 22:23:00,73.4,71.3,30.11,ENE,68,2.3,2.3,93,0.00,CLR,,0.98,0.0,WeatherDisplay:10.37,2013-07-16 03:23:00,
2013-07-15 22:28:00,73.4,71.3,30.11,ESE,112,2.3,2.3,93,0.00,CLR,,0.98,0.0,WeatherDisplay:10.37,2013-07-16 03:28:00,
2013-07-15 22:33:00,73.6,71.4,30.13,ENE,68,3.5,3.5,93,0.00,CLR,,0.98,0.0,WeatherDisplay:10.37,2013-07-16 03:33:00,
2013-07-15 22:38:00,73.6,71.4,30.13,ENE,68,2.3,2.3,93,0.00,CLR,,0.98,0.0,WeatherDisplay:10.37,2013-07-16 03:38:00,
2013-07-15 22:43:00,73.6,71.4,30.13,NNE,22,2.3,2.3,93,0.00,CLR,,0.98,0.0,WeatherDisplay:10.37,2013-07-16 03:43:00,
2013-07-15 22:48:00,73.6,71.4,30.13,ENE,68,2.3,2.3,93,0.00,CLR,,0.98,0.0,WeatherDisplay:10.37,2013-07-16 03:48:00,
2013-07-15 22:54:00,73.4,71.3,30.12,ENE,68,2.3,2.3,93,0.00,CLR,,0.98,0.0,WeatherDisplay:10.37,2013-07-16 03:54:00,
2013-07-15 22:59:00,73.4,71.3,30.12,ESE,112,3.5,3.5,93,0.00,CLR,,0.98,0.0,WeatherDisplay:10.37,2013-07-16 03:59:00,
2013-07-15 23:01:00,73.4,71.3,30.12,ESE,112,3.5,3.5,93,0.00,CLR,,0.98,0.0,WeatherDisplay:10.37,2013-07-16 04:01:00,
2013-07-15 23:02:00,73.4,71.3,30.12,ESE,112,2.3,2.3,93,0.00,CLR,,0.98,0.0,WeatherDisplay:10.37,2013-07-16 04:02:00,
2013-07-15 23:04:00,73.4,71.3,30.12,NE,45,3.5,3.5,93,0.00,CLR,,0.98,0.0,WeatherDisplay:10.37,2013-07-16 04:04:00,
2013-07-15 23:10:00,73.6,71.4,30.12,ENE,68,3.5,3.5,93,0.00,CLR,,0.98,0.0,WeatherDisplay:10.37,2013-07-16 04:10:00,
2013-07-15 23:15:00,73.6,71.4,30.12,ESE,112,4.6,4.6,93,0.00,CLR,,0.98,0.0,WeatherDisplay:10.37,2013-07-16 04:15:00,
2013-07-15 23:20:00,73.6,71.4,30.12,ESE,112,3.5,3.5,93,0.00,CLR,,0.98,10.0,WeatherDisplay:10.37,2013-07-16 04:20:00,
2013-07-15 23:25:00,73.6,71.4,30.12,ESE,112,4.6,4.6,93,0.00,CLR,,0.98,10.0,WeatherDisplay:10.37,2013-07-16 04:25:00,
2013-07-15 23:30:00,73.8,71.6,30.13,ESE,112,4.6,4.6,93,0.00,CLR,,0.98,10.0,WeatherDisplay:10.37,2013-07-16 04:30:00,
2013-07-15 23:35:00,73.6,71.4,30.13,ESE,112,5.8,5.8,93,0.00,CLR,,0.98,10.0,WeatherDisplay:10.37,2013-07-16 04:35:00,
2013-07-15 23:40:00,73.6,71.4,30.13,ESE,112,3.8,3.8,93,0.00,CLR,,0.98,10.0,WeatherDisplay:10.37,2013-07-16 04:40:00,
2013-07-15 23:46:00,73.6,71.4,30.13,East,90,3.5,3.5,93,0.00,CLR,,0.98,10.0,WeatherDisplay:10.37,2013-07-16 04:46:00,
2013-07-15 23:51:00,73.6,71.4,30.12,ESE,112,4.6,4.6,93,0.00,CLR,,0.98,10.0,WeatherDisplay:10.37,2013-07-16 04:51:00,
2013-07-15 23:56:00,73.6,71.4,30.12,ESE,112,3.5,3.5,93,0.00,CLR,,0.98,10.0,WeatherDisplay:10.37,2013-07-16 04:56:00,